TimeFJST,TemperatureF,Dew PointF,Humidity,Sea Level PressureIn,VisibilityMPH,Wind Direction,Wind SpeedMPH,Gust SpeedMPH,PrecipitationIn,Events,Conditions,WindDirDegrees,DateUTC
12:00 AM,69.8,68.0,94,29.74,24.9,Calm,Calm,-,N/A,,Partly Cloudy,0,2012-11-07 11:00:00
1:00 AM,69,67,92,29.73,12,Calm,Calm,,,,Partly Cloudy,,2012-11-07 12:00:00
1:00 AM,69.8,68.0,94,29.71,24.9,Calm,Calm,-,N/A,,Partly Cloudy,0,2012-11-07 12:00:00
2:00 AM,68.0,68.0,100,29.71,24.9,Calm,Calm,-,N/A,,Scattered Clouds,0,2012-11-07 13:00:00
3:00 AM,68.0,66.2,94,29.68,24.9,Calm,Calm,-,N/A,,Partly Cloudy,0,2012-11-07 14:00:00
4:00 AM,68,66,90,29.70,12,ESE,4.6,,,,Partly Cloudy,110,2012-11-07 15:00:00
4:00 AM,68.0,66.2,94,29.68,24.9,ESE,4.6,-,N/A,,Partly Cloudy,110,2012-11-07 15:00:00
5:00 AM,68.0,66.2,94,29.71,24.9,ESE,5.8,-,N/A,,Scattered Clouds,120,2012-11-07 16:00:00
6:00 AM,66.2,66.2,100,29.71,24.9,ESE,4.6,-,N/A,,Scattered Clouds,110,2012-11-07 17:00:00
7:00 AM,66,66,98,29.75,31,Calm,Calm,,,,Partly Cloudy,,2012-11-07 18:00:00
7:00 AM,66.2,66.2,100,29.74,31.1,Calm,Calm,-,N/A,,Scattered Clouds,0,2012-11-07 18:00:00
8:00 AM,71.6,68.0,88,29.77,31.1,East,4.6,-,N/A,,Partly Cloudy,100,2012-11-07 19:00:00
9:00 AM,75.2,68.0,78,29.77,31.1,SSE,5.8,-,N/A,,Partly Cloudy,160,2012-11-07 20:00:00
10:00 AM,79,65,54,29.80,31,South,4.6,,,,Partly Cloudy,190,2012-11-07 21:00:00
10:00 AM,78.8,64.4,61,29.80,31.1,South,4.6,-,N/A,,Scattered Clouds,190,2012-11-07 21:00:00
11:00 AM,77.0,66.2,69,29.80,31.1,SE,6.9,-,N/A,,Scattered Clouds,140,2012-11-07 22:00:00
12:00 PM,77.0,68.0,74,29.77,31.1,SSE,4.6,-,N/A,,Scattered Clouds,150,2012-11-07 23:00:00
1:00 PM,81,64,46,29.78,31,SSW,8.1,,,,Partly Cloudy,200,2012-11-08 00:00:00
1:00 PM,80.6,64.4,58,29.77,31.1,SSW,8.1,-,N/A,,Scattered Clouds,200,2012-11-08 00:00:00
2:00 PM,80.6,64.4,58,29.74,31.1,SSW,10.4,-,N/A,,Scattered Clouds,210,2012-11-08 01:00:00
3:00 PM,82.4,64.4,54,29.74,31.1,SSW,11.5,-,N/A,,Scattered Clouds,210,2012-11-08 02:00:00
4:00 PM,85,72,56,29.71,31,SSW,5.8,,,,Partly Cloudy,200,2012-11-08 03:00:00
4:00 PM,82.4,64.4,54,29.74,31.1,South,11.5,-,N/A,,Scattered Clouds,190,2012-11-08 03:00:00
5:00 PM,80.6,62.6,54,29.74,31.1,South,15.0,-,N/A,,Scattered Clouds,190,2012-11-08 04:00:00
6:00 PM,78.8,62.6,57,29.77,31.1,South,11.5,-,N/A,,Partly Cloudy,180,2012-11-08 05:00:00
7:00 PM,77,64,54,29.80,31,South,6.9,,,,Partly Cloudy,180,2012-11-08 06:00:00
7:00 PM,77.0,64.4,65,29.80,31.1,South,6.9,-,N/A,,Scattered Clouds,180,2012-11-08 06:00:00
8:00 PM,73.4,62.6,69,29.83,24.9,SSE,10.4,-,N/A,,Partly Cloudy,150,2012-11-08 07:00:00
9:00 PM,73.4,62.6,69,29.83,24.9,South,4.6,-,N/A,,Partly Cloudy,170,2012-11-08 08:00:00
10:00 PM,71,64,71,29.86,12,South,5.8,,,,Partly Cloudy,170,2012-11-08 09:00:00
10:00 PM,71.6,64.4,78,29.86,24.9,South,5.8,-,N/A,,Partly Cloudy,170,2012-11-08 09:00:00
11:00 PM,69.8,64.4,83,29.89,24.9,Calm,Calm,-,N/A,,Partly Cloudy,0,2012-11-08 10:00:00